Location: Dürabuch
(48.2640°N, 11.2185°E)
Time: 19:33:16
(UTC+00:00)

CZ-2D R/B - Pass Details

Date: 27 May 2025
Orbit: 790 x 841 km, 98.8° (Epoch: 16 June)

Event Time Altitude Azimuth Distance (km) Brightness Sun altitude
Rises 02:14:53 0° 11° (N) 3,410 6.5 -9.3°
Reaches altitude 10° 02:17:18 10° 8° (N) 2,471 5.5 -9.1°
Maximum altitude 02:22:39 57° 291° (WNW) 988 2.5 -8.4°
Drops below altitude 10° 02:27:57 10° 214° (SW) 2,444 4.0 -7.8°
Enters shadow 02:28:12 - 213° (SSW) 2,541 4.0 -7.8°
